| time (UTC) | temp F | wind direction | speed MPH | gust MPH | rain 1hr in | rain 24hr in | rain mn in | humidity % | barometer mb |
| 20260510190132 | 74 | 343 | 3.0 | 3.0 | 0.00 | 0.00 | 0.00 | 51 | 1013.2 |
| 20260510185628 | 75 | 329 | 11.0 | 13.0 | 0.00 | 0.00 | 0.00 | 49 | 1013.6 |
| 20260510185525 | 75 | 302 | 3.0 | 9.0 | 0.00 | 0.21 | 0.00 | 50 | 1013.6 |
| 20260510185127 | 75 | 301 | 3.0 | 6.0 | 0.00 | 0.00 | 0.00 | 50 | 1013.4 |
| 20260510184623 | 75 | 292 | 4.0 | 6.0 | 0.00 | 0.00 | 0.00 | 49 | 1013.6 |
| 20260510184613 | 75 | 295 | 5.0 | 14.0 | 0.00 | 0.21 | 0.00 | 51 | 1013.7 |
| 20260510184119 | 75 | 296 | 3.0 | 5.0 | 0.00 | 0.00 | 0.00 | 53 | 1013.4 |
| 20260510183615 | 74 | 307 | 3.0 | 6.0 | 0.00 | 0.00 | 0.00 | 55 | 1013.5 |
| 20260510183525 | 74 | 295 | 4.0 | 11.0 | 0.00 | 0.21 | 0.00 | 56 | 1013.7 |
| 20260510183109 | 74 | 337 | 2.0 | 2.0 | 0.00 | 0.00 | 0.00 | 56 | 1013.5 |
| 20260510182607 | 73 | 268 | 4.0 | 5.0 | 0.00 | 0.00 | 0.00 | 57 | 1013.4 |
| 20260510182533 | 73 | 258 | 3.0 | 8.0 | 0.00 | 0.22 | 0.00 | 58 | 1013.7 |
| 20260510182102 | 73 | 236 | 4.0 | 6.0 | 0.00 | 0.00 | 0.00 | 59 | 1013.4 |
| 20260510181600 | 73 | 253 | 9.0 | 10.0 | 0.00 | 0.00 | 0.00 | 58 | 1013.4 |
| 20260510181525 | 74 | 256 | 3.0 | 9.0 | 0.00 | 0.22 | 0.00 | 56 | 1013.8 |
| 20260510181056 | 75 | 299 | 3.0 | 3.0 | 0.00 | 0.00 | 0.00 | 55 | 1013.5 |
| 20260510180553 | 74 | 266 | 0.0 | 0.0 | 0.00 | 0.00 | 0.00 | 59 | 1013.5 |
| 20260510180517 | 73 | 252 | 2.0 | 6.0 | 0.00 | 0.28 | 0.00 | 60 | 1013.8 |
| 20260510180050 | 73 | 260 | 4.0 | 6.0 | 0.00 | 0.00 | 0.00 | 60 | 1013.6 |
| 20260510175545 | 72 | 241 | 1.0 | 1.0 | 0.00 | 0.00 | 0.00 | 61 | 1013.5 |
| 20260510175525 | 72 | 236 | 3.0 | 9.0 | 0.00 | 0.29 | 0.00 | 62 | 1013.7 |
| 20260510175041 | 72 | 233 | 0.0 | 0.0 | 0.00 | 0.00 | 0.00 | 62 | 1013.5 |
| 20260510174540 | 72 | 229 | 6.0 | 7.0 | 0.00 | 0.00 | 0.00 | 62 | 1013.4 |
| 20260510174517 | 72 | 241 | 3.0 | 7.0 | 0.00 | 0.30 | 0.00 | 62 | 1013.7 |
| 20260510174036 | 72 | 228 | 4.0 | 6.0 | 0.00 | 0.00 | 0.00 | 63 | 1013.5 |
| 20260510173531 | 72 | 108 | 1.0 | 2.0 | 0.00 | 0.00 | 0.00 | 61 | 1013.4 |
| 20260510173525 | 72 | 281 | 2.0 | 6.0 | 0.00 | 0.30 | 0.00 | 62 | 1013.8 |
| 20260510173029 | 72 | 256 | 3.0 | 5.0 | 0.00 | 0.00 | 0.00 | 64 | 1013.5 |
| 20260510172524 | 71 | 246 | 1.0 | 2.0 | 0.00 | 0.00 | 0.00 | 63 | 1013.4 |
| 20260510172517 | 72 | 248 | 3.0 | 11.0 | 0.00 | 0.30 | 0.00 | 63 | 1013.7 |
| 20260510172021 | 73 | 304 | 1.0 | 1.0 | 0.00 | 0.00 | 0.00 | 63 | 1013.5 |
| 20260510171525 | 72 | 258 | 1.0 | 5.0 | 0.00 | 0.30 | 0.00 | 65 | 1013.7 |
| 20260510171517 | 72 | 287 | 1.0 | 2.0 | 0.00 | 0.00 | 0.00 | 64 | 1013.4 |
| 20260510171015 | 72 | 270 | 0.0 | 1.0 | 0.00 | 0.00 | 0.00 | 65 | 1013.7 |
| 20260510170517 | 71 | 272 | 0.0 | 2.0 | 0.00 | 0.30 | 0.00 | 66 | 1013.9 |
| 20260510170511 | 72 | 272 | 0.0 | 0.0 | 0.00 | 0.00 | 0.00 | 66 | 1013.6 |
| 20260510170008 | 71 | 236 | 4.0 | 5.0 | 0.00 | 0.00 | 0.00 | 65 | 1013.8 |
| 20260510165545 | 70 | 286 | 1.0 | 2.0 | 0.00 | 0.30 | 0.00 | 66 | 1013.9 |
| 20260510165503 | 71 | 280 | 0.0 | 0.0 | 0.00 | 0.00 | 0.00 | 66 | 1013.7 |
| 20260510165000 | 70 | 299 | 3.0 | 3.0 | 0.00 | 0.00 | 0.00 | 66 | 1013.7 |
| 20260510164517 | 70 | 236 | 3.0 | 7.0 | 0.00 | 0.30 | 0.00 | 68 | 1014.0 |
| 20260510164457 | 69 | 227 | 5.0 | 6.0 | 0.00 | 0.00 | 0.00 | 68 | 1013.8 |
| 20260510163953 | 70 | 266 | 1.0 | 1.0 | 0.00 | 0.00 | 0.00 | 69 | 1013.6 |
| 20260510163525 | 68 | 243 | 2.0 | 6.0 | 0.00 | 0.30 | 0.00 | 71 | 1014.0 |
| 20260510163448 | 68 | 249 | 0.0 | 1.0 | 0.00 | 0.00 | 0.00 | 72 | 1013.7 |
| 20260510162944 | 69 | 232 | 6.0 | 7.0 | 0.00 | 0.00 | 0.00 | 69 | 1013.9 |
| 20260510162537 | 69 | 246 | 0.0 | 3.0 | 0.00 | 0.30 | 0.00 | 72 | 1014.2 |
| 20260510162441 | 69 | 266 | 0.0 | 0.0 | 0.00 | 0.00 | 0.00 | 72 | 1013.9 |
| 20260510161936 | 67 | 282 | 3.0 | 3.0 | 0.00 | 0.00 | 0.00 | 74 | 1013.8 |
| 20260510161605 | 68 | 274 | 1.0 | 5.0 | 0.00 | 0.30 | 0.00 | 73 | 1014.2 |
| 20260510161431 | 68 | 293 | 1.0 | 1.0 | 0.00 | 0.00 | 0.00 | 74 | 1014.0 |
| 20260510160924 | 67 | 296 | 2.0 | 2.0 | 0.00 | 0.00 | 0.00 | 73 | 1013.9 |
| 20260510160537 | 67 | 243 | 2.0 | 6.0 | 0.00 | 0.30 | 0.00 | 75 | 1014.2 |
| 20260510160420 | 67 | 220 | 3.0 | 6.0 | 0.00 | 0.00 | 0.00 | 77 | 1013.9 |
| 20260510155914 | 66 | 254 | 2.0 | 2.0 | 0.00 | 0.00 | 0.00 | 76 | 1013.9 |
| 20260510155545 | 65 | 264 | 1.0 | 5.0 | 0.00 | 0.30 | 0.00 | 78 | 1014.2 |
| 20260510155411 | 65 | 242 | 3.0 | 3.0 | 0.00 | 0.00 | 0.00 | 78 | 1013.9 |
| 20260510154907 | 65 | 272 | 0.0 | 0.0 | 0.00 | 0.00 | 0.00 | 79 | 1014.0 |
| 20260510154517 | 65 | 243 | 3.0 | 6.0 | 0.00 | 0.30 | 0.00 | 78 | 1014.4 |
| 20260510154403 | 64 | 238 | 5.0 | 6.0 | 0.00 | 0.00 | 0.00 | 77 | 1014.3 |
| 20260510153857 | 64 | 237 | 3.0 | 3.0 | 0.00 | 0.00 | 0.00 | 80 | 1014.2 |
| 20260510153525 | 63 | 261 | 0.0 | 1.0 | 0.00 | 0.30 | 0.00 | 82 | 1014.5 |
| 20260510153354 | 63 | 274 | 0.0 | 0.0 | 0.00 | 0.00 | 0.00 | 82 | 1014.2 |
| 20260510152850 | 63 | 275 | 0.0 | 1.0 | 0.00 | 0.00 | 0.00 | 82 | 1014.2 |
| 20260510152517 | 63 | 264 | 0.0 | 1.0 | 0.00 | 0.30 | 0.00 | 82 | 1014.4 |
| 20260510152348 | 63 | 259 | 0.0 | 1.0 | 0.00 | 0.00 | 0.00 | 82 | 1014.3 |
| 20260510151844 | 63 | 277 | 0.0 | 0.0 | 0.00 | 0.00 | 0.00 | 83 | 1013.9 |
| 20260510151533 | 62 | 269 | 0.0 | 2.0 | 0.00 | 0.30 | 0.00 | 83 | 1014.4 |
| 20260510151342 | 62 | 276 | 0.0 | 0.0 | 0.00 | 0.00 | 0.00 | 84 | 1014.1 |
| 20260510150838 | 61 | 277 | 0.0 | 0.0 | 0.00 | 0.00 | 0.00 | 85 | 1014.4 |
| 20260510150537 | 61 | 254 | 1.0 | 3.0 | 0.00 | 0.30 | 0.00 | 85 | 1014.7 |
| 20260510150333 | 61 | 277 | 1.0 | 2.0 | 0.00 | 0.00 | 0.00 | 84 | 1014.4 |
| 20260510145830 | 61 | 268 | 0.0 | 0.0 | 0.00 | 0.00 | 0.00 | 86 | 1014.4 |
| 20260510145525 | 60 | 256 | 1.0 | 3.0 | 0.00 | 0.30 | 0.00 | 86 | 1014.8 |
| 20260510145326 | 60 | 226 | 2.0 | 3.0 | 0.00 | 0.00 | 0.00 | 86 | 1014.5 |
| 20260510144823 | 60 | 279 | 0.0 | 0.0 | 0.00 | 0.00 | 0.00 | 86 | 1014.8 |
| 20260510144517 | 60 | 250 | 1.0 | 3.0 | 0.00 | 0.30 | 0.00 | 86 | 1014.6 |
| 20260510144320 | 60 | 253 | 2.0 | 2.0 | 0.00 | 0.00 | 0.00 | 87 | 1014.5 |
| 20260510143819 | 59 | 271 | 0.0 | 0.0 | 0.00 | 0.00 | 0.00 | 86 | 1014.5 |
| 20260510143545 | 59 | 252 | 1.0 | 3.0 | 0.00 | 0.30 | 0.00 | 87 | 1014.7 |
| 20260510143316 | 60 | 249 | 3.0 | 3.0 | 0.00 | 0.00 | 0.00 | 86 | 1014.6 |
| 20260510142813 | 59 | 283 | 0.0 | 0.0 | 0.00 | 0.00 | 0.00 | 87 | 1014.5 |
| 20260510142517 | 59 | 250 | 1.0 | 5.0 | 0.00 | 0.30 | 0.00 | 88 | 1014.6 |
| 20260510142310 | 59 | 237 | 3.0 | 3.0 | 0.00 | 0.00 | 0.00 | 88 | 1014.2 |
| 20260510141806 | 59 | 263 | 0.0 | 0.0 | 0.00 | 0.00 | 0.00 | 90 | 1014.6 |
| 20260510141526 | 58 | 268 | 0.0 | 2.0 | 0.00 | 0.30 | 0.00 | 90 | 1014.6 |
| 20260510141304 | 58 | 274 | 0.0 | 0.0 | 0.00 | 0.00 | 0.00 | 90 | 1014.3 |
| 20260510140801 | 58 | 258 | 1.0 | 1.0 | 0.00 | 0.00 | 0.00 | 91 | 1014.3 |
| 20260510140517 | 57 | 268 | 0.0 | 1.0 | 0.00 | 0.30 | 0.00 | 92 | 1014.6 |
| 20260510140256 | 57 | 277 | 0.0 | 0.0 | 0.00 | 0.00 | 0.00 | 92 | 1014.2 |
| 20260510135750 | 56 | 280 | 1.0 | 1.0 | 0.00 | 0.00 | 0.00 | 93 | 1014.4 |
| 20260510135525 | 56 | 254 | 1.0 | 3.0 | 0.00 | 0.30 | 0.00 | 94 | 1014.4 |
| 20260510135246 | 56 | 288 | 0.0 | 0.0 | 0.00 | 0.00 | 0.00 | 94 | 1014.3 |
| 20260510134744 | 56 | 240 | 1.0 | 2.0 | 0.00 | 0.00 | 0.00 | 95 | 1014.4 |
| 20260510134517 | 55 | 247 | 1.0 | 2.0 | 0.00 | 0.30 | 0.00 | 95 | 1014.5 |
| 20260510134241 | 55 | 273 | 1.0 | 1.0 | 0.00 | 0.00 | 0.00 | 95 | 1014.2 |
| 20260510133737 | 55 | 265 | 1.0 | 1.0 | 0.00 | 0.00 | 0.00 | 96 | 1014.4 |
| 20260510133526 | 55 | 253 | 1.0 | 2.0 | 0.00 | 0.30 | 0.00 | 97 | 1014.6 |
| 20260510133232 | 55 | 261 | 1.0 | 1.0 | 0.00 | 0.00 | 0.00 | 97 | 1014.3 |
| 20260510132728 | 55 | 277 | 0.0 | 0.0 | 0.00 | 0.00 | 0.00 | 97 | 1014.4 |
| 20260510132518 | 55 | 259 | 0.0 | 2.0 | 0.00 | 0.30 | 0.00 | 97 | 1014.5 |
| 20260510132226 | 55 | 272 | 0.0 | 0.0 | 0.00 | 0.00 | 0.00 | 97 | 1014.2 |
| 20260510131723 | 54 | 271 | 0.0 | 0.0 | 0.00 | 0.00 | 0.00 | 97 | 1014.2 |
| 20260510131526 | 55 | 0.0 | 0.0 | 0.00 | 0.30 | 0.00 | 98 | 1014.3 | |
| 20260510131221 | 55 | 254 | 0.0 | 0.0 | 0.00 | 0.00 | 0.00 | 98 | 1013.8 |
| 20260510130717 | 55 | 270 | 0.0 | 0.0 | 0.00 | 0.00 | 0.00 | 98 | 1014.1 |
| 20260510130553 | 55 | 0.0 | 0.0 | 0.00 | 0.30 | 0.00 | 98 | 1014.3 | |
| 20260510130215 | 55 | 271 | 0.0 | 0.0 | 0.00 | 0.00 | 0.00 | 98 | 1014.1 |
| 20260510125710 | 54 | 267 | 0.0 | 0.0 | 0.00 | 0.00 | 0.00 | 98 | 1014.1 |
| 20260510125605 | 54 | 0.0 | 0.0 | 0.00 | 0.30 | 0.00 | 98 | 1014.1 | |
| 20260510125207 | 54 | 270 | 0.0 | 0.0 | 0.00 | 0.00 | 0.00 | 98 | 1013.9 |
| 20260510124704 | 54 | 264 | 0.0 | 0.0 | 0.00 | 0.00 | 0.00 | 98 | 1013.9 |
| 20260510124533 | 54 | 0.0 | 0.0 | 0.00 | 0.30 | 0.00 | 98 | 1014.2 | |
| 20260510124201 | 54 | 257 | 0.0 | 0.0 | 0.00 | 0.00 | 0.00 | 98 | 1013.8 |
| 20260510123656 | 54 | 270 | 0.0 | 0.0 | 0.00 | 0.00 | 0.00 | 98 | 1014.0 |
| 20260510123546 | 53 | 0.0 | 0.0 | 0.00 | 0.30 | 0.00 | 98 | 1014.1 | |
| 20260510123152 | 53 | 276 | 0.0 | 0.0 | 0.00 | 0.00 | 0.00 | 99 | 1013.8 |
| 20260510122649 | 54 | 244 | 0.0 | 0.0 | 0.00 | 0.00 | 0.00 | 99 | 1013.6 |
| 20260510122553 | 54 | 0.0 | 0.0 | 0.00 | 0.30 | 0.00 | 99 | 1014.0 | |
| 20260510122145 | 54 | 266 | 0.0 | 0.0 | 0.00 | 0.00 | 0.00 | 99 | 1013.7 |
| 20260510121641 | 54 | 276 | 0.0 | 0.0 | 0.00 | 0.00 | 0.00 | 99 | 1013.5 |
| 20260510121526 | 54 | 0.0 | 0.0 | 0.00 | 0.30 | 0.00 | 99 | 1014.0 | |
| 20260510121139 | 53 | 281 | 0.0 | 0.0 | 0.00 | 0.00 | 0.00 | 99 | 1013.7 |
| 20260510120636 | 53 | 275 | 0.0 | 0.0 | 0.00 | 0.00 | 0.00 | 99 | 1013.5 |
| 20260510120533 | 53 | 0.0 | 0.0 | 0.00 | 0.30 | 0.00 | 99 | 1013.7 | |
| 20260510120132 | 53 | 274 | 0.0 | 0.0 | 0.00 | 0.00 | 0.00 | 99 | 1013.6 |
| 20260510115628 | 53 | 277 | 0.0 | 0.0 | 0.00 | 0.00 | 0.00 | 99 | 1013.3 |
| 20260510115526 | 53 | 0.0 | 0.0 | 0.00 | 0.30 | 0.00 | 99 | 1013.7 | |
| 20260510115127 | 53 | 279 | 0.0 | 0.0 | 0.00 | 0.00 | 0.00 | 99 | 1013.4 |
| 20260510114622 | 53 | 277 | 0.0 | 0.0 | 0.00 | 0.00 | 0.00 | 99 | 1013.4 |
| 20260510114533 | 53 | 0.0 | 0.0 | 0.00 | 0.30 | 0.00 | 99 | 1013.7 | |
| 20260510114118 | 53 | 275 | 0.0 | 0.0 | 0.00 | 0.00 | 0.00 | 99 | 1013.4 |
| 20260510113614 | 53 | 274 | 0.0 | 0.0 | 0.00 | 0.00 | 0.00 | 99 | 1013.4 |
| 20260510113526 | 53 | 0.0 | 0.0 | 0.00 | 0.30 | 0.00 | 99 | 1013.8 | |
| 20260510113111 | 53 | 220 | 0.0 | 0.0 | 0.00 | 0.00 | 0.00 | 99 | 1013.5 |
| 20260510112608 | 53 | 282 | 0.0 | 0.0 | 0.00 | 0.00 | 0.00 | 99 | 1013.4 |
| 20260510112533 | 53 | 0.0 | 0.0 | 0.00 | 0.30 | 0.00 | 99 | 1013.5 | |
| 20260510112104 | 53 | 272 | 0.0 | 0.0 | 0.00 | 0.00 | 0.00 | 99 | 1013.2 |
| 20260510111601 | 53 | 269 | 0.0 | 0.0 | 0.00 | 0.00 | 0.00 | 99 | 1013.1 |
| 20260510111526 | 52 | 0.0 | 0.0 | 0.00 | 0.30 | 0.00 | 99 | 1013.3 | |
| 20260510111056 | 52 | 271 | 0.0 | 0.0 | 0.00 | 0.00 | 0.00 | 99 | 1012.9 |
| 20260510110553 | 53 | 275 | 0.0 | 0.0 | 0.00 | 0.00 | 0.00 | 99 | 1013.1 |
| 20260510110518 | 53 | 0.0 | 0.0 | 0.00 | 0.30 | 0.00 | 99 | 1013.2 | |
| 20260510110049 | 52 | 277 | 0.0 | 0.0 | 0.00 | 0.00 | 0.00 | 99 | 1012.9 |
| 20260510105546 | 52 | 0.0 | 0.0 | 0.00 | 0.30 | 0.00 | 99 | 1013.1 | |
| 20260510105039 | 52 | 277 | 0.0 | 0.0 | 0.00 | 0.00 | 0.00 | 99 | 1012.8 |
| 20260510104536 | 52 | 277 | 0.0 | 0.0 | 0.00 | 0.00 | 0.00 | 99 | 1012.7 |
| 20260510104518 | 52 | 0.0 | 0.0 | 0.00 | 0.30 | 0.00 | 99 | 1013.0 | |
| 20260510104033 | 52 | 262 | 0.0 | 0.0 | 0.00 | 0.00 | 0.00 | 99 | 1012.8 |
| 20260510103530 | 52 | 269 | 0.0 | 0.0 | 0.00 | 0.00 | 0.00 | 99 | 1012.9 |
| 20260510103526 | 52 | 0.0 | 0.0 | 0.00 | 0.30 | 0.00 | 99 | 1013.1 | |
| 20260510103026 | 52 | 277 | 0.0 | 0.0 | 0.00 | 0.00 | 0.00 | 99 | 1013.0 |
| 20260510102538 | 52 | 0.0 | 0.0 | 0.00 | 0.30 | 0.00 | 99 | 1013.1 | |
| 20260510102522 | 52 | 276 | 0.0 | 0.0 | 0.00 | 0.00 | 0.00 | 99 | 1013.0 |
| 20260510102019 | 52 | 271 | 0.0 | 0.0 | 0.00 | 0.00 | 0.00 | 99 | 1012.8 |
| 20260510101526 | 52 | 0.0 | 0.0 | 0.00 | 0.30 | 0.00 | 99 | 1013.1 | |
| 20260510101516 | 52 | 273 | 0.0 | 0.0 | 0.00 | 0.00 | 0.00 | 99 | 1012.8 |
| 20260510101015 | 52 | 273 | 0.0 | 0.0 | 0.00 | 0.00 | 0.00 | 99 | 1013.0 |
| 20260510100538 | 52 | 0.0 | 0.0 | 0.00 | 0.30 | 0.00 | 99 | 1013.2 | |
| 20260510100510 | 52 | 275 | 0.0 | 0.0 | 0.00 | 0.00 | 0.00 | 99 | 1013.0 |
| 20260510100007 | 52 | 272 | 0.0 | 0.0 | 0.00 | 0.00 | 0.00 | 99 | 1012.8 |
| 20260510095526 | 52 | 0.0 | 0.0 | 0.00 | 0.30 | 0.00 | 99 | 1013.2 | |
| 20260510095503 | 52 | 274 | 0.0 | 0.0 | 0.00 | 0.00 | 0.00 | 99 | 1012.9 |
| 20260510095003 | 52 | 245 | 0.0 | 0.0 | 0.00 | 0.00 | 0.00 | 99 | 1012.8 |
| 20260510094518 | 52 | 0.0 | 0.0 | 0.00 | 0.30 | 0.00 | 99 | 1013.1 | |
| 20260510094457 | 52 | 275 | 0.0 | 0.0 | 0.00 | 0.00 | 0.00 | 99 | 1012.9 |
| 20260510093953 | 52 | 273 | 0.0 | 0.0 | 0.00 | 0.00 | 0.00 | 99 | 1012.6 |
| 20260510093526 | 52 | 0.0 | 0.0 | 0.00 | 0.30 | 0.00 | 99 | 1013.0 | |
| 20260510093449 | 52 | 270 | 0.0 | 0.0 | 0.00 | 0.00 | 0.00 | 99 | 1012.7 |
| 20260510092945 | 52 | 276 | 0.0 | 0.0 | 0.00 | 0.00 | 0.00 | 99 | 1012.8 |
| 20260510092518 | 52 | 0.0 | 0.0 | 0.00 | 0.30 | 0.00 | 99 | 1013.2 | |
| 20260510092443 | 52 | 277 | 0.0 | 0.0 | 0.00 | 0.00 | 0.00 | 99 | 1012.9 |
| 20260510091942 | 52 | 268 | 0.0 | 0.0 | 0.00 | 0.00 | 0.00 | 99 | 1013.0 |
| 20260510091526 | 52 | 0.0 | 0.0 | 0.00 | 0.30 | 0.00 | 99 | 1013.3 | |
| 20260510091440 | 52 | 272 | 0.0 | 0.0 | 0.00 | 0.00 | 0.00 | 99 | 1013.0 |
| 20260510090936 | 52 | 272 | 0.0 | 0.0 | 0.00 | 0.00 | 0.00 | 99 | 1013.0 |
| 20260510090518 | 52 | 0.0 | 0.0 | 0.00 | 0.30 | 0.00 | 99 | 1013.5 | |
| 20260510090433 | 52 | 272 | 0.0 | 0.0 | 0.00 | 0.00 | 0.00 | 99 | 1013.2 |
| 20260510085928 | 51 | 273 | 0.0 | 0.0 | 0.00 | 0.00 | 0.00 | 98 | 1013.3 |
| 20260510085526 | 52 | 0.0 | 0.0 | 0.00 | 0.30 | 0.00 | 98 | 1013.5 | |
| 20260510085424 | 51 | 273 | 0.0 | 0.0 | 0.00 | 0.00 | 0.00 | 98 | 1013.1 |
| 20260510084919 | 51 | 273 | 0.0 | 0.0 | 0.00 | 0.00 | 0.00 | 98 | 1013.1 |
| 20260510084518 | 52 | 0.0 | 0.0 | 0.00 | 0.30 | 0.00 | 98 | 1013.5 | |
| 20260510084417 | 52 | 276 | 0.0 | 0.0 | 0.00 | 0.00 | 0.00 | 98 | 1013.3 |
| 20260510083913 | 52 | 281 | 0.0 | 0.0 | 0.00 | 0.00 | 0.00 | 98 | 1013.2 |
| 20260510083526 | 52 | 303 | 0.0 | 2.0 | 0.00 | 0.30 | 0.00 | 98 | 1013.6 |
| 20260510083410 | 52 | 275 | 0.0 | 0.0 | 0.00 | 0.00 | 0.00 | 98 | 1013.2 |
| 20260510082905 | 52 | 271 | 0.0 | 0.0 | 0.00 | 0.00 | 0.00 | 98 | 1013.2 |
| 20260510082518 | 52 | 302 | 1.0 | 3.0 | 0.00 | 0.30 | 0.00 | 98 | 1013.5 |
| 20260510082403 | 52 | 268 | 0.0 | 0.0 | 0.00 | 0.00 | 0.00 | 98 | 1013.3 |
| 20260510081902 | 52 | 271 | 0.0 | 0.0 | 0.00 | 0.00 | 0.00 | 98 | 1013.2 |
| 20260510081526 | 52 | 320 | 1.0 | 3.0 | 0.00 | 0.30 | 0.00 | 98 | 1013.4 |
| 20260510081358 | 52 | 335 | 1.0 | 1.0 | 0.00 | 0.00 | 0.00 | 98 | 1013.0 |
| 20260510080855 | 52 | 278 | 0.0 | 0.0 | 0.00 | 0.00 | 0.00 | 98 | 1013.0 |
| 20260510080518 | 52 | 319 | 0.0 | 2.0 | 0.00 | 0.30 | 0.00 | 98 | 1013.1 |
| 20260510080348 | 52 | 331 | 1.0 | 2.0 | 0.00 | 0.00 | 0.00 | 98 | 1013.0 |
| 20260510075846 | 52 | 274 | 0.0 | 0.0 | 0.00 | 0.00 | 0.00 | 98 | 1012.8 |
| 20260510075526 | 52 | 331 | 1.0 | 3.0 | 0.00 | 0.30 | 0.00 | 98 | 1012.9 |
| 20260510075344 | 52 | 321 | 2.0 | 2.0 | 0.00 | 0.00 | 0.00 | 98 | 1012.7 |
| 20260510074840 | 52 | 274 | 0.0 | 0.0 | 0.00 | 0.00 | 0.00 | 98 | 1012.1 |
| 20260510074518 | 52 | 0.0 | 0.0 | 0.00 | 0.30 | 0.00 | 98 | 1012.5 | |
| 20260510074337 | 52 | 274 | 0.0 | 0.0 | 0.00 | 0.00 | 0.00 | 98 | 1012.1 |
| 20260510073834 | 52 | 274 | 0.0 | 0.0 | 0.00 | 0.00 | 0.00 | 98 | 1012.3 |
| 20260510073526 | 52 | 0.0 | 0.0 | 0.00 | 0.30 | 0.00 | 98 | 1012.5 | |
| 20260510073329 | 52 | 276 | 0.0 | 0.0 | 0.00 | 0.00 | 0.00 | 98 | 1012.2 |
| 20260510072825 | 52 | 277 | 0.0 | 0.0 | 0.00 | 0.00 | 0.00 | 98 | 1012.2 |
| 20260510072518 | 52 | 0.0 | 0.0 | 0.00 | 0.30 | 0.00 | 98 | 1012.5 | |
| 20260510072323 | 52 | 274 | 0.0 | 0.0 | 0.00 | 0.00 | 0.00 | 98 | 1012.2 |
| 20260510071819 | 52 | 274 | 0.0 | 0.0 | 0.00 | 0.00 | 0.00 | 98 | 1012.2 |
| 20260510071526 | 52 | 0.0 | 0.0 | 0.00 | 0.30 | 0.00 | 98 | 1012.5 | |
| 20260510071315 | 52 | 276 | 0.0 | 0.0 | 0.00 | 0.00 | 0.00 | 98 | 1012.3 |
| 20260510070814 | 52 | 278 | 0.0 | 0.0 | 0.00 | 0.00 | 0.00 | 98 | 1012.4 |
| 20260510070518 | 52 | 0.0 | 0.0 | 0.00 | 0.30 | 0.00 | 98 | 1012.6 | |
| 20260510070305 | 52 | 276 | 0.0 | 0.0 | 0.00 | 0.00 | 0.00 | 98 | 1012.4 |
| 20260510065805 | 51 | 274 | 0.0 | 0.0 | 0.00 | 0.00 | 0.00 | 98 | 1012.5 |
| 20260510065526 | 51 | 0.0 | 0.0 | 0.00 | 0.30 | 0.00 | 98 | 1012.7 | |
| 20260510065306 | 51 | 274 | 0.0 | 0.0 | 0.00 | 0.00 | 0.00 | 98 | 1012.5 |
| 20260510064758 | 51 | 272 | 0.0 | 0.0 | 0.00 | 0.00 | 0.00 | 98 | 1012.3 |
| 20260510064558 | 51 | 0.0 | 0.0 | 0.00 | 0.30 | 0.00 | 98 | 1012.7 | |
| 20260510064257 | 51 | 279 | 0.0 | 0.0 | 0.00 | 0.00 | 0.00 | 98 | 1012.4 |
| 20260510063752 | 51 | 274 | 0.0 | 0.0 | 0.00 | 0.00 | 0.00 | 98 | 1012.5 |
| 20260510063526 | 51 | 0.0 | 0.0 | 0.00 | 0.30 | 0.00 | 98 | 1012.7 | |
| 20260510063248 | 51 | 272 | 0.0 | 0.0 | 0.00 | 0.00 | 0.00 | 98 | 1012.5 |
| 20260510062745 | 51 | 280 | 0.0 | 0.0 | 0.00 | 0.00 | 0.00 | 98 | 1012.6 |
| 20260510062538 | 51 | 0.0 | 0.0 | 0.00 | 0.30 | 0.00 | 98 | 1012.7 | |
| 20260510062241 | 51 | 285 | 0.0 | 0.0 | 0.00 | 0.00 | 0.00 | 98 | 1012.4 |
| 20260510061736 | 51 | 278 | 0.0 | 0.0 | 0.00 | 0.00 | 0.00 | 98 | 1012.4 |
| 20260510061526 | 51 | 0.0 | 0.0 | 0.00 | 0.30 | 0.00 | 98 | 1012.5 | |
| 20260510061234 | 51 | 279 | 0.0 | 0.0 | 0.00 | 0.00 | 0.00 | 98 | 1012.3 |
| 20260510060730 | 51 | 278 | 0.0 | 0.0 | 0.00 | 0.00 | 0.00 | 98 | 1012.1 |
| 20260510060613 | 51 | 0.0 | 0.0 | 0.00 | 0.30 | 0.00 | 98 | 1012.5 | |
| 20260510060227 | 51 | 276 | 0.0 | 0.0 | 0.00 | 0.00 | 0.00 | 98 | 1012.3 |
| 20260510055723 | 51 | 279 | 0.0 | 0.0 | 0.00 | 0.00 | 0.00 | 98 | 1012.1 |
| 20260510055526 | 50 | 0.0 | 0.0 | 0.00 | 0.30 | 0.00 | 98 | 1012.3 | |
| 20260510055222 | 50 | 277 | 0.0 | 0.0 | 0.00 | 0.00 | 0.00 | 98 | 1011.9 |
| 20260510054722 | 50 | 274 | 0.0 | 0.0 | 0.00 | 0.00 | 0.00 | 98 | 1012.2 |
| 20260510054533 | 50 | 0.0 | 0.0 | 0.00 | 0.30 | 0.00 | 98 | 1012.4 | |
| 20260510054218 | 50 | 274 | 0.0 | 0.0 | 0.00 | 0.00 | 0.00 | 98 | 1012.1 |
| 20260510053717 | 50 | 274 | 0.0 | 0.0 | 0.00 | 0.00 | 0.00 | 98 | 1012.1 |
| 20260510053526 | 50 | 0.0 | 0.0 | 0.00 | 0.30 | 0.00 | 98 | 1012.3 | |
| 20260510053214 | 50 | 274 | 0.0 | 0.0 | 0.00 | 0.00 | 0.00 | 98 | 1012.1 |
| 20260510052709 | 50 | 272 | 0.0 | 0.0 | 0.00 | 0.00 | 0.00 | 98 | 1012.1 |
| 20260510052533 | 50 | 0.0 | 0.0 | 0.00 | 0.30 | 0.00 | 98 | 1012.4 | |
| 20260510052206 | 50 | 272 | 0.0 | 0.0 | 0.00 | 0.00 | 0.00 | 98 | 1012.2 |
| 20260510051701 | 50 | 276 | 0.0 | 0.0 | 0.00 | 0.00 | 0.00 | 98 | 1012.2 |
| 20260510051526 | 50 | 0.0 | 0.0 | 0.00 | 0.30 | 0.00 | 98 | 1012.5 | |
| 20260510051158 | 50 | 272 | 0.0 | 0.0 | 0.00 | 0.00 | 0.00 | 98 | 1012.2 |
| 20260510050655 | 50 | 273 | 0.0 | 0.0 | 0.00 | 0.00 | 0.00 | 98 | 1012.2 |
| 20260510050532 | 50 | 0.0 | 0.0 | 0.00 | 0.30 | 0.00 | 98 | 1012.7 | |
| 20260510050153 | 50 | 272 | 0.0 | 0.0 | 0.00 | 0.00 | 0.00 | 98 | 1012.5 |
| 20260510045649 | 50 | 275 | 0.0 | 0.0 | 0.00 | 0.00 | 0.00 | 98 | 1012.4 |
| 20260510045546 | 50 | 0.0 | 0.0 | 0.00 | 0.30 | 0.00 | 98 | 1012.6 | |
| 20260510045146 | 51 | 275 | 0.0 | 0.0 | 0.00 | 0.00 | 0.00 | 98 | 1012.4 |
| 20260510044642 | 51 | 273 | 0.0 | 0.0 | 0.00 | 0.00 | 0.00 | 98 | 1012.4 |
| 20260510044532 | 51 | 0.0 | 0.0 | 0.00 | 0.30 | 0.00 | 98 | 1012.6 | |
| 20260510044140 | 51 | 275 | 0.0 | 0.0 | 0.00 | 0.00 | 0.00 | 98 | 1012.3 |
| 20260510043635 | 51 | 271 | 0.0 | 0.0 | 0.00 | 0.00 | 0.00 | 98 | 1012.5 |
| 20260510043532 | 51 | 0.0 | 0.0 | 0.00 | 0.30 | 0.00 | 98 | 1012.6 | |
| 20260510043132 | 51 | 278 | 0.0 | 0.0 | 0.00 | 0.00 | 0.00 | 98 | 1012.2 |
| 20260510042630 | 51 | 278 | 0.0 | 0.0 | 0.00 | 0.00 | 0.00 | 98 | 1012.4 |
| 20260510042532 | 51 | 0.0 | 0.0 | 0.00 | 0.30 | 0.00 | 98 | 1012.6 | |
| 20260510042125 | 51 | 271 | 0.0 | 0.0 | 0.00 | 0.00 | 0.00 | 98 | 1012.3 |
| 20260510041623 | 51 | 276 | 0.0 | 0.0 | 0.00 | 0.00 | 0.00 | 98 | 1012.3 |
| 20260510041526 | 51 | 0.0 | 0.0 | 0.00 | 0.30 | 0.00 | 98 | 1012.5 | |
| 20260510041120 | 51 | 272 | 0.0 | 0.0 | 0.00 | 0.00 | 0.00 | 98 | 1012.3 |
| 20260510040617 | 52 | 273 | 0.0 | 0.0 | 0.00 | 0.00 | 0.00 | 98 | 1012.2 |
| 20260510040538 | 52 | 284 | 0.0 | 1.0 | 0.00 | 0.30 | 0.00 | 98 | 1012.6 |
| 20260510040114 | 52 | 272 | 0.0 | 0.0 | 0.00 | 0.30 | 0.30 | 98 | 1012.5 |
| 20260510035609 | 51 | 274 | 0.0 | 0.0 | 0.00 | 0.30 | 0.30 | 98 | 1012.3 |
| 20260510035527 | 51 | 0.0 | 0.0 | 0.00 | 0.30 | 0.30 | 98 | 1012.5 | |
| 20260510035104 | 51 | 275 | 0.0 | 0.0 | 0.00 | 0.30 | 0.30 | 98 | 1012.3 |
| 20260510034602 | 51 | 282 | 0.0 | 0.0 | 0.00 | 0.30 | 0.30 | 98 | 1012.3 |
| 20260510034518 | 51 | 0.0 | 0.0 | 0.00 | 0.30 | 0.30 | 98 | 1012.4 | |
| 20260510034059 | 51 | 278 | 0.0 | 0.0 | 0.00 | 0.30 | 0.30 | 97 | 1012.1 |
| 20260510033555 | 51 | 276 | 0.0 | 0.0 | 0.00 | 0.30 | 0.30 | 98 | 1012.1 |
| 20260510033527 | 51 | 0.0 | 0.0 | 0.00 | 0.30 | 0.30 | 97 | 1012.4 | |
| 20260510033053 | 51 | 276 | 0.0 | 0.0 | 0.00 | 0.30 | 0.30 | 97 | 1012.0 |
| 20260510032549 | 51 | 273 | 0.0 | 0.0 | 0.00 | 0.30 | 0.30 | 97 | 1012.2 |
| 20260510032518 | 51 | 0.0 | 0.0 | 0.00 | 0.30 | 0.30 | 97 | 1012.2 | |
| 20260510032044 | 51 | 276 | 0.0 | 0.0 | 0.00 | 0.30 | 0.30 | 97 | 1011.8 |
| 20260510031539 | 51 | 272 | 0.0 | 0.0 | 0.00 | 0.30 | 0.30 | 97 | 1012.0 |
| 20260510031526 | 50 | 0.0 | 0.0 | 0.00 | 0.30 | 0.30 | 97 | 1012.3 | |
| 20260510031035 | 50 | 271 | 0.0 | 0.0 | 0.00 | 0.30 | 0.30 | 97 | 1011.8 |
| 20260510030531 | 50 | 276 | 0.0 | 0.0 | 0.00 | 0.30 | 0.30 | 97 | 1012.0 |
| 20260510030519 | 50 | 0.0 | 0.0 | 0.00 | 0.30 | 0.30 | 97 | 1012.2 | |
| 20260510030029 | 51 | 275 | 0.0 | 0.0 | 0.00 | 0.30 | 0.30 | 97 | 1011.9 |
| 20260510025527 | 51 | 0.0 | 0.0 | 0.00 | 0.30 | 0.30 | 97 | 1012.3 | |
| 20260510025023 | 51 | 277 | 0.0 | 0.0 | 0.00 | 0.30 | 0.30 | 97 | 1012.0 |
| 20260510024520 | 51 | 277 | 0.0 | 0.0 | 0.00 | 0.30 | 0.30 | 97 | 1012.1 |
| 20260510024016 | 51 | 280 | 0.0 | 0.0 | 0.00 | 0.30 | 0.30 | 97 | 1012.2 |
| 20260510023526 | 50 | 0.0 | 0.0 | 0.00 | 0.30 | 0.30 | 97 | 1012.5 | |
| 20260510023512 | 51 | 284 | 0.0 | 0.0 | 0.00 | 0.30 | 0.30 | 97 | 1012.1 |
| 20260510023010 | 50 | 277 | 0.0 | 0.0 | 0.00 | 0.30 | 0.30 | 97 | 1012.2 |
| 20260510022518 | 51 | 0.0 | 0.0 | 0.00 | 0.30 | 0.30 | 97 | 1012.5 | |
| 20260510022508 | 51 | 274 | 0.0 | 0.0 | 0.00 | 0.30 | 0.30 | 97 | 1012.1 |
| 20260510022008 | 51 | 274 | 0.0 | 0.0 | 0.00 | 0.30 | 0.30 | 97 | 1012.3 |
| 20260510021547 | 51 | 0.0 | 0.0 | 0.00 | 0.30 | 0.30 | 97 | 1012.3 | |
| 20260510021505 | 51 | 279 | 0.0 | 0.0 | 0.00 | 0.30 | 0.30 | 97 | 1012.2 |
| 20260510021003 | 50 | 276 | 0.0 | 0.0 | 0.00 | 0.30 | 0.30 | 97 | 1012.2 |
| 20260510020519 | 51 | 0.0 | 0.0 | 0.00 | 0.30 | 0.30 | 97 | 1012.3 | |
| 20260510020457 | 51 | 274 | 0.0 | 0.0 | 0.00 | 0.30 | 0.30 | 97 | 1012.0 |
| 20260510015953 | 51 | 277 | 0.0 | 0.0 | 0.00 | 0.30 | 0.30 | 97 | 1012.1 |
| 20260510015527 | 51 | 0.0 | 0.0 | 0.00 | 0.30 | 0.30 | 97 | 1012.4 | |
| 20260510015448 | 51 | 284 | 0.0 | 0.0 | 0.00 | 0.30 | 0.30 | 97 | 1012.0 |
| 20260510014943 | 51 | 275 | 0.0 | 0.0 | 0.00 | 0.30 | 0.30 | 97 | 1011.9 |
| 20260510014519 | 52 | 0.0 | 0.0 | 0.00 | 0.30 | 0.30 | 97 | 1012.2 | |
| 20260510014442 | 52 | 278 | 0.0 | 0.0 | 0.00 | 0.30 | 0.30 | 97 | 1012.0 |
| 20260510013938 | 52 | 277 | 0.0 | 0.0 | 0.00 | 0.30 | 0.30 | 97 | 1012.1 |
| 20260510013546 | 52 | 0.0 | 0.0 | 0.00 | 0.30 | 0.30 | 97 | 1012.3 | |
| 20260510013432 | 52 | 276 | 0.0 | 0.0 | 0.00 | 0.30 | 0.30 | 97 | 1012.0 |
| 20260510012929 | 52 | 277 | 0.0 | 0.0 | 0.00 | 0.30 | 0.30 | 96 | 1012.0 |
| 20260510012519 | 52 | 0.0 | 0.0 | 0.00 | 0.30 | 0.30 | 96 | 1012.2 | |
| 20260510012424 | 52 | 271 | 0.0 | 0.0 | 0.00 | 0.30 | 0.30 | 96 | 1012.0 |
| 20260510011919 | 52 | 272 | 0.0 | 0.0 | 0.00 | 0.30 | 0.30 | 96 | 1011.9 |
| 20260510011527 | 52 | 0.0 | 0.0 | 0.00 | 0.30 | 0.30 | 96 | 1012.0 | |
| 20260510011414 | 53 | 276 | 0.0 | 0.0 | 0.00 | 0.30 | 0.30 | 96 | 1011.8 |
| 20260510010910 | 53 | 276 | 0.0 | 0.0 | 0.00 | 0.30 | 0.30 | 96 | 1011.8 |
| 20260510010519 | 53 | 0.0 | 0.0 | 0.00 | 0.30 | 0.30 | 96 | 1011.7 | |
| 20260510010408 | 53 | 275 | 0.0 | 0.0 | 0.00 | 0.30 | 0.30 | 96 | 1011.4 |
| 20260510005904 | 53 | 275 | 0.0 | 0.0 | 0.00 | 0.30 | 0.30 | 96 | 1011.4 |
| 20260510005527 | 53 | 0.0 | 0.0 | 0.00 | 0.30 | 0.30 | 96 | 1011.8 | |
| 20260510005400 | 53 | 274 | 0.0 | 0.0 | 0.00 | 0.30 | 0.30 | 96 | 1011.6 |
| 20260510004858 | 53 | 276 | 0.0 | 0.0 | 0.00 | 0.30 | 0.30 | 96 | 1011.5 |
| 20260510004519 | 53 | 0.0 | 0.0 | 0.00 | 0.30 | 0.30 | 96 | 1011.7 | |
| 20260510004355 | 53 | 276 | 0.0 | 0.0 | 0.00 | 0.30 | 0.30 | 96 | 1011.5 |
| 20260510003853 | 53 | 278 | 0.0 | 0.0 | 0.00 | 0.30 | 0.30 | 96 | 1011.3 |
| 20260510003527 | 53 | 0.0 | 0.0 | 0.00 | 0.30 | 0.30 | 96 | 1011.7 | |
| 20260510003350 | 53 | 274 | 0.0 | 0.0 | 0.00 | 0.30 | 0.30 | 96 | 1011.4 |
| 20260510002848 | 53 | 275 | 0.0 | 0.0 | 0.00 | 0.30 | 0.30 | 96 | 1011.5 |
| 20260510002539 | 54 | 0.0 | 0.0 | 0.00 | 0.30 | 0.30 | 96 | 1011.7 | |
| 20260510002346 | 54 | 277 | 0.0 | 0.0 | 0.00 | 0.30 | 0.30 | 96 | 1011.5 |
| 20260510001842 | 54 | 274 | 0.0 | 0.0 | 0.00 | 0.30 | 0.30 | 95 | 1011.5 |
| 20260510001527 | 54 | 0.0 | 0.0 | 0.00 | 0.30 | 0.30 | 95 | 1011.7 | |
| 20260510001341 | 54 | 274 | 0.0 | 0.0 | 0.00 | 0.30 | 0.30 | 95 | 1011.4 |
| 20260510000836 | 54 | 274 | 0.0 | 0.0 | 0.00 | 0.30 | 0.30 | 95 | 1011.5 |
| 20260510000519 | 54 | 0.0 | 0.0 | 0.00 | 0.30 | 0.30 | 95 | 1011.6 | |
| 20260510000334 | 54 | 278 | 0.0 | 0.0 | 0.00 | 0.30 | 0.30 | 95 | 1011.5 |
| 20260509235830 | 54 | 277 | 0.0 | 0.0 | 0.00 | 0.30 | 0.30 | 95 | 1011.2 |
| 20260509235552 | 55 | 0.0 | 0.0 | 0.00 | 0.30 | 0.30 | 95 | 1011.5 | |
| 20260509235327 | 55 | 275 | 0.0 | 0.0 | 0.00 | 0.30 | 0.30 | 95 | 1011.2 |
| 20260509234823 | 55 | 278 | 0.0 | 0.0 | 0.00 | 0.30 | 0.30 | 95 | 1011.3 |
| 20260509234519 | 55 | 0.0 | 0.0 | 0.00 | 0.30 | 0.30 | 95 | 1011.4 | |
| 20260509234320 | 55 | 280 | 0.0 | 0.0 | 0.00 | 0.30 | 0.30 | 95 | 1011.2 |
| 20260509233818 | 55 | 277 | 0.0 | 0.0 | 0.00 | 0.30 | 0.30 | 95 | 1011.1 |
| 20260509233526 | 55 | 0.0 | 0.0 | 0.00 | 0.30 | 0.30 | 95 | 1011.4 | |
| 20260509233316 | 55 | 280 | 0.0 | 0.0 | 0.00 | 0.30 | 0.30 | 95 | 1011.0 |
| 20260509232811 | 56 | 265 | 0.0 | 0.0 | 0.00 | 0.30 | 0.30 | 95 | 1011.1 |
| 20260509232519 | 56 | 269 | 0.0 | 1.0 | 0.00 | 0.30 | 0.30 | 95 | 1011.3 |
| 20260509232309 | 56 | 276 | 0.0 | 0.0 | 0.00 | 0.30 | 0.30 | 95 | 1011.1 |
| 20260509231805 | 56 | 275 | 0.0 | 0.0 | 0.00 | 0.30 | 0.30 | 95 | 1010.9 |
| 20260509231527 | 56 | 280 | 0.0 | 1.0 | 0.00 | 0.30 | 0.30 | 95 | 1011.2 |
| 20260509231302 | 56 | 273 | 0.0 | 0.0 | 0.00 | 0.30 | 0.30 | 95 | 1010.9 |
| 20260509230800 | 56 | 247 | 1.0 | 1.0 | 0.00 | 0.30 | 0.30 | 95 | 1011.1 |
| 20260509230518 | 56 | 271 | 0.0 | 1.0 | 0.00 | 0.30 | 0.30 | 95 | 1011.6 |
| 20260509230256 | 56 | 273 | 0.0 | 0.0 | 0.00 | 0.30 | 0.30 | 95 | 1011.3 |
| 20260509225751 | 56 | 273 | 0.0 | 0.0 | 0.00 | 0.30 | 0.30 | 95 | 1011.4 |
| 20260509225607 | 56 | 0.0 | 0.0 | 0.00 | 0.30 | 0.30 | 95 | 1011.9 | |
| 20260509225248 | 56 | 271 | 0.0 | 0.0 | 0.00 | 0.30 | 0.30 | 95 | 1011.6 |
| 20260509224743 | 56 | 298 | 0.0 | 0.0 | 0.00 | 0.30 | 0.30 | 95 | 1011.6 |
| 20260509224519 | 56 | 255 | 1.0 | 3.0 | 0.02 | 0.30 | 0.30 | 95 | 1011.9 |
| 20260509224241 | 56 | 264 | 1.0 | 2.0 | 0.00 | 0.30 | 0.30 | 95 | 1011.5 |
| 20260509223738 | 56 | 259 | 0.0 | 1.0 | 0.00 | 0.30 | 0.30 | 95 | 1011.5 |
| 20260509223527 | 56 | 266 | 0.0 | 1.0 | 0.05 | 0.30 | 0.30 | 95 | 1011.7 |
| 20260509223235 | 56 | 274 | 0.0 | 0.0 | 0.00 | 0.30 | 0.30 | 95 | 1011.5 |
| 20260509222731 | 56 | 264 | 0.0 | 0.0 | 0.00 | 0.30 | 0.30 | 95 | 1011.3 |
| 20260509222519 | 55 | 0.0 | 0.0 | 0.09 | 0.30 | 0.30 | 95 | 1011.7 | |
| 20260509222226 | 55 | 274 | 0.0 | 0.0 | 0.00 | 0.30 | 0.30 | 95 | 1011.4 |
| 20260509221722 | 55 | 273 | 0.0 | 0.0 | 0.00 | 0.30 | 0.30 | 95 | 1011.4 |
| 20260509221527 | 55 | 0.0 | 0.0 | 0.12 | 0.30 | 0.30 | 95 | 1011.7 | |
| 20260509221219 | 55 | 272 | 0.0 | 0.0 | 0.00 | 0.30 | 0.30 | 95 | 1011.5 |
| 20260509220715 | 55 | 271 | 0.0 | 0.0 | 0.00 | 0.30 | 0.30 | 95 | 1011.6 |
| 20260509220519 | 55 | 0.0 | 0.0 | 0.13 | 0.30 | 0.30 | 95 | 1012.1 | |
| 20260509220212 | 55 | 273 | 0.0 | 0.0 | 0.07 | 0.30 | 0.30 | 95 | 1011.9 |
| 20260509215707 | 55 | 275 | 0.0 | 0.0 | 0.07 | 0.30 | 0.30 | 95 | 1011.9 |
| 20260509215527 | 55 | 0.0 | 0.0 | 0.16 | 0.30 | 0.30 | 95 | 1012.1 | |
| 20260509215204 | 55 | 281 | 0.0 | 0.0 | 0.12 | 0.29 | 0.29 | 95 | 1011.8 |
| 20260509214701 | 55 | 270 | 0.0 | 0.0 | 0.24 | 0.29 | 0.29 | 94 | 1011.6 |
| 20260509214532 | 55 | 0.0 | 0.0 | 0.15 | 0.28 | 0.28 | 94 | 1012.1 | |
| 20260509214158 | 55 | 280 | 0.0 | 0.0 | 0.24 | 0.27 | 0.27 | 94 | 1011.9 |
| 20260509213655 | 55 | 288 | 0.0 | 0.0 | 0.28 | 0.26 | 0.26 | 94 | 1012.0 |
| 20260509213527 | 55 | 0.0 | 0.0 | 0.14 | 0.25 | 0.25 | 94 | 1012.0 | |
| 20260509213150 | 55 | 279 | 0.0 | 0.0 | 0.19 | 0.23 | 0.23 | 94 | 1011.8 |
| 20260509212648 | 55 | 284 | 0.0 | 0.0 | 0.19 | 0.21 | 0.21 | 93 | 1012.0 |
| 20260509212532 | 55 | 0.0 | 0.0 | 0.11 | 0.21 | 0.21 | 93 | 1012.1 | |
| 20260509212145 | 55 | 273 | 0.0 | 0.0 | 0.17 | 0.20 | 0.20 | 93 | 1011.8 |
| 20260509211641 | 55 | 279 | 0.0 | 0.0 | 0.12 | 0.19 | 0.19 | 93 | 1011.8 |
| 20260509211547 | 55 | 0.0 | 0.0 | 0.08 | 0.18 | 0.18 | 93 | 1012.1 | |
| 20260509211138 | 55 | 274 | 0.0 | 0.0 | 0.07 | 0.17 | 0.17 | 93 | 1011.9 |
| 20260509210635 | 55 | 288 | 1.0 | 1.0 | 0.19 | 0.17 | 0.17 | 93 | 1011.7 |
| 20260509210532 | 55 | 0.0 | 0.0 | 0.07 | 0.17 | 0.17 | 92 | 1011.9 | |
| 20260509210132 | 56 | 274 | 0.0 | 0.0 | 0.19 | 0.16 | 0.16 | 92 | 1011.7 |
| 20260509205627 | 56 | 267 | 1.0 | 1.0 | 0.07 | 0.14 | 0.14 | 92 | 1011.8 |
| 20260509205527 | 56 | 264 | 0.0 | 1.0 | 0.04 | 0.14 | 0.14 | 91 | 1011.9 |
| 20260509205121 | 56 | 291 | 0.0 | 0.0 | 0.05 | 0.13 | 0.13 | 91 | 1011.8 |
| 20260509204617 | 55 | 282 | 0.0 | 0.0 | 0.12 | 0.13 | 0.13 | 90 | 1011.7 |
| 20260509204532 | 56 | 0.0 | 0.0 | 0.03 | 0.13 | 0.13 | 89 | 1012.2 | |
| 20260509204108 | 55 | 273 | 0.0 | 0.0 | 0.12 | 0.13 | 0.13 | 89 | 1012.1 |
| 20260509203604 | 56 | 279 | 0.0 | 0.0 | 0.07 | 0.12 | 0.12 | 88 | 1012.1 |
| 20260509203527 | 56 | 0.0 | 0.0 | 0.02 | 0.11 | 0.11 | 88 | 1012.3 | |
| 20260509203103 | 56 | 279 | 0.0 | 0.0 | 0.05 | 0.11 | 0.11 | 88 | 1012.0 |
| 20260509202603 | 55 | 276 | 0.0 | 0.0 | 0.05 | 0.11 | 0.11 | 87 | 1012.1 |
| 20260509202532 | 56 | 280 | 1.0 | 1.0 | 0.01 | 0.10 | 0.10 | 88 | 1012.3 |
| 20260509202058 | 56 | 284 | 0.0 | 0.0 | 0.00 | 0.10 | 0.10 | 88 | 1012.2 |
| 20260509201607 | 56 | 316 | 1.0 | 3.0 | 0.01 | 0.10 | 0.10 | 87 | 1012.5 |
| 20260509201553 | 56 | 243 | 1.0 | 2.0 | 0.00 | 0.10 | 0.10 | 87 | 1012.3 |
| 20260509201051 | 56 | 293 | 1.0 | 2.0 | 0.00 | 0.10 | 0.10 | 87 | 1012.1 |
| 20260509200550 | 57 | 286 | 0.0 | 0.0 | 0.00 | 0.10 | 0.10 | 88 | 1012.3 |
| 20260509200532 | 57 | 297 | 0.0 | 1.0 | 0.01 | 0.10 | 0.10 | 87 | 1012.4 |
| 20260509200047 | 57 | 277 | 0.0 | 0.0 | 0.00 | 0.10 | 0.10 | 86 | 1012.1 |
| 20260509195547 | 57 | 268 | 2.0 | 8.0 | 0.01 | 0.10 | 0.10 | 85 | 1012.5 |
| 20260509195543 | 57 | 263 | 0.0 | 0.0 | 0.00 | 0.10 | 0.10 | 85 | 1012.2 |
| 20260509195038 | 58 | 296 | 1.0 | 2.0 | 0.07 | 0.10 | 0.10 | 86 | 1012.2 |
| 20260509194533 | 57 | 286 | 3.0 | 3.0 | 0.07 | 0.10 | 0.10 | 87 | 1012.2 |
| 20260509194031 | 58 | 295 | 2.0 | 3.0 | 0.07 | 0.10 | 0.10 | 88 | 1012.0 |
| 20260509193532 | 57 | 282 | 0.0 | 2.0 | 0.00 | 0.09 | 0.09 | 89 | 1012.2 |
| 20260509193028 | 57 | 270 | 0.0 | 0.0 | 0.00 | 0.09 | 0.09 | 90 | 1012.0 |
| 20260509192532 | 58 | 0.0 | 0.0 | 0.01 | 0.09 | 0.09 | 91 | 1012.1 | |
| 20260509192524 | 58 | 288 | 0.0 | 0.0 | 0.00 | 0.09 | 0.09 | 91 | 1012.0 |
| 20260509192019 | 58 | 277 | 0.0 | 0.0 | 0.00 | 0.09 | 0.09 | 91 | 1011.9 |
| 20260509191527 | 58 | 0.0 | 0.0 | 0.01 | 0.09 | 0.09 | 90 | 1012.3 | |
| 20260509191514 | 58 | 274 | 0.0 | 0.0 | 0.00 | 0.09 | 0.09 | 90 | 1012.1 |
| 20260509191010 | 58 | 273 | 0.0 | 0.0 | 0.00 | 0.09 | 0.09 | 90 | 1012.2 |